Regional Weather Roundup
Issued by NWS Burlington, VT

Home | Current Version | Previous Version | Text Only | Print | Product List | Glossary On
Versions: 1 2 3 4 5 6 7 8 9 10 11 12 13 14 15 16 17 18 19 20 21 22 23 24 25 26 27 28 29 30 31 32 33 34 35 36 37 38 39 40 41 42 43 44 45 46 47 48 49 50
000
ASUS41 KBTV 230830
RWRBTV
VERMONT REGIONAL WEATHER ROUNDUP
NATIONAL WEATHER SERVICE BURLINGTON VT
400 AM EDT WED AUG 23 2017

NOTE: "FAIR" INDICATES FEW OR NO CLOUDS BELOW 12,000 FEET WITH NO
SIGNIFICANT WEATHER AND/OR OBSTRUCTIONS TO VISIBILITY.

* THESE REPORTS ARE NOT UNDER NWS QUALITY CONTROL AND/OR DO NOT
  REPORT WEATHER SUCH AS PRECIPITATION AND FOG.

VTZ001>019-230900-
_____VERMONT_____


CITY           SKY/WX    TMP DP  RH WIND       PRES   REMARKS
BURLINGTON     PTCLDY    70  67  90 SW7       29.63R
MONTPELIER     MOCLDY    70  63  78 SW9G20    29.68R
MORRISVILLE    PTCLDY    66  63  90 SW5       29.64S
ST. JOHNSBURY*   N/A     68  68 100 MISG      29.61S
LYNDONVILLE*   FAIR      66  65  94 CALM      29.66S
MIDDLEBURY*    CLOUDY    68  65  90 SW5       29.67R
RUTLAND*       CLOUDY    70  64  81 SW8       29.70R
SPRINGFIELD    CLOUDY    66  64  93 N5        29.69S
HIGHGATE*      MOCLDY    66  61  82 W10G16    29.63R
NEWPORT*       FAIR      65  64  96 SE7       29.63R
BENNINGTON     CLOUDY    69  65  86 SW9       29.73R
ISLAND POND*     N/A     66 N/A N/A W5          N/A
GALLUP MILLS*    N/A     66 N/A N/A MISG        N/A
UNION VILLAGE*   N/A     66 N/A N/A MISG        N/A
MT. MANSFIELD*   N/A     59 N/A N/A W36G47      N/A

_____LAKE CHAMPLAIN_____


CITY           SKY/WX    TMP DP  RH WIND       PRES   REMARKS
BURTON ISLAND*   N/A     72  63  73 W22         N/A
COLCHESTER RF*   N/A     73  63  68 W17G23      N/A
DIAMOND ISL*     N/A     70  68  94 N1          N/A

$$

NYZ007-026>031-035-052-083-087-230900-
_____NORTHERN NEW YORK_____


CITY           SKY/WX    TMP DP  RH WIND       PRES   REMARKS
PLATTSBURGH    PTCLDY    69  58  67 W9        29.63R
SARANAC LAKE   MOCLDY    58  58 100 W8G18     29.71R
MASSENA        PTCLDY    63  59  87 SW12      29.67R
OGDENSBURG*    FAIR      61  58  88 SW10G16   29.69S
POTSDAM*       MOCLDY    61  61 100 W15       29.70R
STARK FALLS*     N/A     61 N/A N/A W9          N/A
WATERTOWN      PTCLDY    62  55  77 W12       29.75R
FT DRUM        PTCLDY    60  54  78 W7        29.74R
ALBANY         CLOUDY    69  64  84 W6        29.72S
GLENS FALLS    MOCLDY    68  64  87 SW8       29.69R

$$
NHZ002-005-011-230900-
_____NEW HAMPSHIRE_____


CITY           SKY/WX    TMP DP  RH WIND       PRES   REMARKS
LEBANON        CLOUDY    71  66  84 S12       29.66S
KEENE            N/A    N/A N/A N/A MISG        N/A
MT WASHINGTON  FOG       52  52 100 W47G54      N/A  VSB 0
PLYMOUTH       FAIR      67  64  93 CALM      29.65S
WHITEFIELD     PTCLDY    68  63  84 SW3       29.65R

$$

_____REGIONAL QUEBEC LOCATIONS_____


CITY           SKY/WX    TMP DP  RH WIND       PRES   REMARKS
MONTREAL       MOCLDY    66  61  82 SW20      29.59R
QUEBEC CITY    MOCLDY    68  64  88 SW15G23   29.47S
SHERBROOKE     MOCLDY    66  64  94 SW6       29.57S

_____REGIONAL ONTARIO LOCATIONS_____


CITY           SKY/WX    TMP DP  RH WIND       PRES   REMARKS
OTTAWA         MOCLDY    61  59  94 SW10      29.65R

______KEY______
VSB  - VISIBILITY IN MILES
WCI  - WIND CHILL INDEX
HX   - HEAT INDEX
$$
NNNN




USA.gov is the U.S. government's official web portal to all federal, state and local government web resources and services.